Wind_Speed
16 17 17 17 18 18 18 19 20 19 19 19 18 17 16 13 12 12 12 8 4 3 7 9 6 6 3 1 3 6 5 4 5 5 3 1 1 2 2 1 2 4 5 3 3 4 6 1 0 4 6 3 4 4
15 17 18 18 18 19 19 20 19 19 18 19 18 17 17 15 12 10 6 5 6 6 7 21 28 35 30 25 0 3 3 2 3 4 1 1 1 1 2 2 3 2 4 5 6 6 5 5 4 3 2 7 3 6
15 17 19 20 20 21 21 19 19 19 19 19 20 19 18 16 12 9 13 14 4 3 6 2 8 15 14 28 26 3 3 3 3 3 3 2 1 3 1 3 0 1 2 3 4 4 5 5 4 6 6 7 6 5
16 18 19 21 22 22 23 18 19 20 20 21 21 19 17 17 15 12 11 8 5 5 3 6 9 15 13 9 27 30 11 4 3 2 3 2 0 1 2 2 2 3 4 3 3 3 5 6 3 4 7 8 10 6
17 19 20 21 22 23 22 22 22 22 23 23 23 22 20 17 16 18 22 23 17 3 3 6 21 18 6 15 21 23 11 2 1 3 2 2 2 2 2 2 2 0 4 4 6 6 3 6 4 4 9 6 8 8
17 18 19 21 21 25 25 25 25 24 24 25 26 23 19 16 14 10 3 2 11 12 1 4 6 6 9 9 15 9 7 4 3 4 4 3 2 3 3 1 4 2 3 2 3 3 2 1 4 1 6 7 6 8
15 17 20 22 24 27 28 27 26 24 25 27 27 23 19 12 9 5 3 3 15 3 1 4 5 5 6 3 2 2 2 2 3 2 2 2 2 4 3 2 6 7 6 4 3 5 3 4 2 5 8 6 7 9
17 17 19 22 25 28 30 30 26 24 27 28 24 18 12 9 11 10 3 13 18 6 1 3 5 5 8 3 2 2 2 3 3 2 1 2 2 1 2 6 5 4 5 7 5 3 4 2 6 7 10 8 8 6
19 20 21 23 25 27 28 26 25 27 29 21 16 9 2 3 3 2 9 3 17 4 2 1 2 3 5 3 1 3 2 2 1 2 1 3 2 2 3 3 3 7 7 8 3 2 6 8 11 10 11 12 12 8
19 21 22 23 24 25 23 23 27 29 24 15 5 2 2 3 11 8 3 1 1 1 1 3 1 3 2 2 3 1 2 2 2 2 1 3 2 3 4 7 8 11 10 4 4 2 3 4 7 4 3 5 5 7
20 21 22 23 24 22 19 22 28 31 10 9 8 2 10 12 1 1 2 2 2 3 3 4 4 3 2 1 2 1 1 0 2 3 2 1 1 3 6 7 6 7 6 8 2 3 3 6 9 9 8 7 11 11
20 21 21 22 22 19 15 21 27 26 15 14 15 11 7 3 2 2 3 2 4 3 3 2 3 4 4 3 2 2 2 2 1 2 3 1 2 3 5 6 8 8 8 10 9 6 9 11 11 10 8 8 8 8
22 23 22 22 21 14 16 23 27 22 17 3 2 3 1 1 3 3 3 2 3 4 2 3 4 3 1 2 2 2 3 2 1 3 2 3 3 3 2 3 7 8 10 9 9 12 16 11 12 13 7 7 9 7
21 22 22 22 14 12 22 25 26 17 4 2 2 2 1 3 4 1 2 2 4 2 4 3 3 2 1 2 2 3 1 2 3 2 4 2 3 2 5 3 2 4 5 5 5 6 6 10 11 12 10 10 10 8
22 22 22 10 9 19 26 26 18 6 2 3 2 3 4 2 4 4 4 3 2 2 2 2 3 1 2 3 2 3 2 0 3 3 2 3 4 3 3 2 2 1 3 5 1 2 7 9 9 10 9 8 7 8
20 19 1 7 21 25 25 17 4 3 3 2 4 2 1 4 2 4 2 3 2 2 0 1 1 4 2 2 2 3 6 4 2 3 2 4 4 5 3 3 1 3 3 3 2 5 8 11 10 7 6 4 7 7
15 6 7 18 24 23 12 1 2 3 3 3 3 3 3 2 4 6 3 3 1 1 1 2 3 1 4 1 1 1 5 4 3 2 2 5 5 3 2 1 3 5 6 1 5 1 3 2 1 1 3 3 5 6
8 14 17 20 19 17 4 2 2 2 4 4 3 3 2 3 4 4 4 3 2 2 1 3 3 2 2 2 2 3 3 1 2 2 4 4 4 5 4 2 4 7 9 11 9 7 3 3 1 1 4 5 5 5
19 21 20 13 8 6 3 3 3 3 5 3 4 3 3 4 4 4 3 2 2 1 3 2 3 3 3 3 4 3 3 2 1 2 2 4 5 6 5 5 10 12 13 8 5 3 2 5 6 7 4 4 5 4
15 15 5 4 6 2 3 4 3 2 3 3 2 3 3 3 3 2 2 3 3 1 0 2 4 3 4 3 4 3 2 3 2 2 2 2 3 5 6 7 9 9 5 9 12 11 8 5 2 1 2 3 4 3
11 3 7 1 4 5 2 3 3 3 3 3 3 2 4 2 3 2 2 3 2 3 3 4 3 3 3 3 2 5 4 4 3 3 2 0 2 5 4 6 10 14 9 7 6 6 6 2 1 2 1 2 2 1
4 6 3 3 2 3 3 7 3 4 2 3 3 1 3 2 3 3 3 2 3 4 4 4 3 3 3 3 4 6 5 6 6 5 3 3 1 0 2 3 7 5 4 5 7 7 5 3 1 2 4 2 2 4
9 3 4 3 2 1 6 1 2 3 2 3 3 3 3 2 3 1 1 3 3 3 5 5 5 6 6 8 4 4 7 10 4 4 7 8 3 2 6 3 6 10 6 5 7 8 7 4 4 5 5 7 7 8
3 3 2 3 4 4 2 3 3 2 3 2 2 3 3 2 2 2 2 3 3 2 1 1 3 2 3 4 3 4 8 5 4 3 3 4 2 4 6 5 3 9 8 12 12 10 8 9 8 10 11 12 14 15
2 3 3 4 2 1 3 3 3 1 3 3 2 3 3 1 0 1 2 3 3 2 3 2 2 2 3 1 2 7 4 6 6 4 5 8 6 5 2 4 5 10 14 16 12 10 11 11 11 13 14 15 16 18
4 4 7 4 3 4 4 3 4 4 3 3 4 3 1 1 1 2 1 2 2 2 1 0 1 2 1 2 2 3 10 10 11 5 7 10 7 10 7 5 3 6 6 9 14 13 13 14 17 18 18 16 20 20
4 5 4 4 3 3 3 3 3 1 3 3 2 3 2 2 1 1 3 2 2 4 3 2 2 3 3 6 8 10 11 7 12 8 9 11 9 11 20 15 9 10 12 11 12 14 19 19 19 17 15 10 11 15
5 3 6 3 3 3 3 2 2 3 3 3 1 2 1 2 2 2 3 7 7 7 6 5 5 5 5 4 5 6 3 4 6 7 7 7 9 12 12 8 13 15 14 12 13 16 19 21 22 17 13 11 11 11
4 3 2 4 3 4 5 6 4 3 1 2 2 2 1 3 4 4 8 10 4 6 6 9 9 5 7 8 8 4 2 15 17 8 7 4 3 7 12 15 18 18 16 16 14 14 16 18 18 16 14 12 10 8
4 4 4 3 4 5 4 5 3 3 3 3 2 2 3 3 10 13 10 5 3 4 5 4 2 3 2 1 1 2 3 15 19 19 8 8 12 19 19 19 20 21 19 19 19 17 15 15 14 12 11 10 9 8
2 3 3 3 3 3 3 2 3 3 2 2 2 3 4 3 3 3 3 2 2 5 2 1 1 4 6 5 2 2 3 7 14 17 14 16 22 23 20 19 21 20 19 17 17 15 14 13 11 10 9 8 7 6
2 4 3 3 3 3 2 1 2 2 2 1 3 2 3 3 2 2 1 5 6 6 5 5 9 7 6 11 9 3 6 6 4 12 15 19 27 23 19 18 20 19 19 18 17 15 14 12 11 10 8 8 8 9
2 1 1 1 2 2 3 2 2 3 3 2 3 2 2 2 4 3 3 5 9 7 7 9 10 6 9 11 5 3 5 7 9 15 17 22 26 23 20 18 22 22 21 19 17 16 14 13 14 13 12 11 10 9
Wind_Direction
349 349 347 344 341 339 336 333 330 329 328 325 324 325 326 326 333 332 289 225 215 261 276 239 248 230 290 320 282 296 353 347 18 62 99 241 180 259 69 306 318 188 142 176 84 94 247 347 124 173 208 20 98 90
346 344 341 343 341 335 333 329 331 331 336 339 333 325 320 319 322 329 286 189 284 228 260 284 268 261 253 248 173 281 239 255 205 78 9 98 331 45 165 322 3 335 182 189 169 207 267 277 214 117 135 107 90 88
343 342 341 339 338 334 329 333 332 331 332 330 327 323 321 321 320 303 287 294 287 266 282 292 239 277 272 238 220 190 279 254 0 162 153 162 298 113 114 262 283 71 65 86 75 289 312 331 331 108 123 120 136 133
342 341 336 337 335 333 331 329 325 326 326 322 322 317 316 312 309 297 273 241 293 268 277 283 316 287 290 255 209 213 246 335 70 17 96 102 132 129 209 192 132 225 2 120 323 327 340 3 350 102 89 108 110 111
337 337 335 335 335 339 336 332 326 321 321 325 324 319 315 312 308 296 282 266 244 231 270 284 306 287 294 230 216 223 215 159 177 39 39 249 204 70 347 70 21 301 192 148 213 221 176 199 214 152 128 138 140 127
333 336 334 333 335 340 338 334 328 323 321 323 324 319 313 311 313 319 310 331 174 186 260 299 291 288 299 256 195 177 182 165 118 145 218 263 257 102 80 4 265 274 280 184 292 205 199 24 125 95 124 151 159 143
326 330 332 331 332 334 335 332 327 321 321 322 319 311 304 295 281 225 260 128 169 17 233 302 308 273 311 106 68 122 144 98 113 143 228 191 250 99 108 156 240 228 228 214 209 137 36 25 250 166 125 101 97 79
319 321 323 327 328 329 332 331 328 325 325 324 316 303 289 275 273 281 323 224 207 274 236 278 276 334 2 2 80 12 86 30 14 181 66 177 28 52 176 227 209 271 290 280 194 127 168 135 65 47 68 94 97 118
316 321 324 325 326 330 334 338 336 331 330 328 324 309 262 201 213 323 325 292 192 238 272 245 264 290 349 6 296 32 72 114 307 166 268 82 323 209 274 289 210 219 205 229 286 156 191 170 169 154 152 159 151 163
315 320 323 326 330 333 338 344 343 337 334 328 333 329 290 209 299 293 217 163 211 264 255 239 216 271 20 347 330 50 30 140 126 252 37 86 216 253 343 322 295 286 276 252 162 227 140 189 171 145 66 60 91 124
315 321 324 326 329 331 337 347 349 346 353 358 360 312 304 328 292 174 219 192 174 240 207 242 203 209 253 153 253 50 166 38 91 270 106 359 103 254 337 329 303 320 250 211 264 242 165 139 137 128 110 105 116 125
311 316 321 325 326 324 335 346 349 346 328 311 296 298 301 331 318 221 217 277 203 227 329 285 273 210 271 127 95 317 95 41 183 300 80 190 249 306 351 326 336 353 55 61 57 73 84 87 95 94 103 114 123 131
311 313 317 322 323 311 329 337 342 333 324 298 229 250 34 339 325 241 229 316 9 314 317 320 309 246 16 70 79 73 73 233 70 46 229 223 236 252 342 335 339 355 54 58 61 96 107 102 110 114 120 146 158 163
312 311 313 318 311 313 327 328 334 329 313 283 268 286 228 255 254 339 300 247 247 244 293 266 253 240 274 106 131 98 255 79 53 12 243 261 251 281 316 353 46 356 7 91 98 96 130 158 167 165 181 179 168 169
309 310 312 316 333 321 320 322 322 297 259 271 249 216 231 178 265 255 275 307 260 252 307 320 292 301 320 100 44 109 73 153 194 232 209 213 225 215 299 300 119 136 319 313 270 170 156 157 167 151 167 172 189 183
318 321 6 321 320 321 323 321 312 198 249 238 244 267 106 330 300 285 286 274 271 304 323 10 345 10 18 70 142 171 144 201 243 223 172 156 213 251 238 325 156 161 155 119 144 139 147 156 184 176 187 216 212 203
316 250 304 315 325 323 327 256 203 229 247 255 257 228 156 199 281 271 268 247 189 50 140 82 44 294 304 32 120 182 181 192 207 250 159 155 195 241 296 258 293 301 321 11 292 171 215 224 221 255 276 299 191 198
267 300 315 324 335 337 321 233 270 267 256 254 249 267 237 210 246 263 256 185 140 174 142 173 138 49 293 283 264 241 250 250 217 221 217 208 249 269 154 212 275 294 278 284 302 314 293 300 324 123 133 144 177 203
286 306 317 324 316 315 316 265 201 254 250 260 270 244 230 247 237 237 261 142 168 127 127 98 158 193 235 228 221 235 229 199 262 248 226 191 179 218 250 265 281 299 300 291 276 257 78 120 137 156 170 203 231 244
303 308 323 333 211 202 279 277 239 245 270 254 266 268 229 242 272 236 188 162 149 137 296 196 214 210 197 233 207 202 182 168 138 3 353 327 217 205 242 265 279 286 204 138 126 126 125 123 132 220 234 241 209 167
323 5 334 262 195 224 249 285 283 228 275 268 265 247 261 290 267 263 241 151 133 207 236 224 232 250 229 240 216 176 169 174 181 170 207 195 211 172 153 150 227 176 154 149 135 125 129 136 131 162 256 296 261 265
275 313 283 242 238 213 243 233 227 283 282 261 306 236 270 273 249 227 153 161 210 220 195 191 219 197 189 202 202 203 225 209 198 237 254 243 327 329 163 63 135 142 146 166 169 154 124 112 51 356 336 333 310 317
280 263 231 229 246 1 260 231 234 249 244 267 320 285 256 255 234 107 231 215 245 227 210 209 224 220 206 206 190 193 179 151 153 217 234 243 255 184 146 84 148 155 142 159 150 126 107 73 29 34 31 25 25 23
262 268 249 237 167 249 308 263 219 270 296 291 271 276 273 253 350 62 250 260 264 325 11 307 156 102 76 120 189 217 207 194 172 235 251 244 322 327 331 337 173 181 175 145 124 108 79 56 58 55 56 57 61 63
257 252 127 284 283 247 246 260 240 233 250 245 253 270 262 92 68 272 244 283 329 336 329 356 91 141 159 195 320 255 238 227 207 218 247 224 254 312 24 108 135 150 155 134 120 103 79 76 75 78 73 77 79 80
240 225 171 218 234 193 224 255 200 222 228 268 246 258 112 113 216 249 283 290 306 294 305 335 96 62 2 201 201 253 258 246 216 210 240 205 234 202 164 138 142 165 161 155 136 118 114 108 105 98 97 100 111 110
241 255 235 228 233 251 279 282 277 219 258 251 272 319 337 258 311 29 304 244 255 271 290 285 225 187 221 262 252 262 245 229 205 218 266 258 267 216 176 172 175 155 154 155 141 140 140 138 134 130 131 127 129 133
227 237 194 227 210 216 221 247 264 245 252 249 4 360 38 21 317 305 257 263 291 330 324 309 284 263 288 305 299 298 328 261 209 170 147 118 128 149 175 166 149 150 152 149 141 144 147 147 149 148 148 144 150 147
249 249 170 250 232 204 209 198 232 253 214 62 341 283 234 169 209 221 250 243 298 338 2 353 349 333 321 315 300 293 279 158 136 121 119 135 117 144 159 161 159 161 156 144 135 135 148 153 159 163 166 168 162 164
245 181 195 233 201 218 222 183 224 241 237 205 221 313 307 274 267 267 250 231 278 332 328 304 299 335 291 203 338 357 160 183 174 158 158 180 187 171 173 173 171 169 162 149 141 137 138 143 149 156 165 175 189 201
223 163 206 218 239 247 234 272 267 289 281 260 231 193 254 274 316 22 211 230 297 295 257 204 159 167 165 137 156 48 31 135 194 198 190 187 174 171 173 176 177 175 175 169 163 158 158 162 162 166 177 188 200 210
185 208 188 208 261 282 303 208 252 241 268 296 279 312 317 358 299 289 319 325 291 252 248 218 177 168 60 38 39 18 279 271 233 200 209 192 176 174 174 173 174 175 179 182 181 179 186 193 200 213 224 235 246 250
204 198 195 247 251 242 248 157 240 259 241 242 235 212 222 203 240 268 299 276 275 287 295 251 216 203 18 21 20 313 226 221 195 193 193 179 170 172 174 176 176 178 183 187 191 194 204 220 230 238 236 238 242 252
Height
864 861 857 854 851 847 844 840 837 834 830 827 824 822 820 818 817 815 809 809 809 805 787 777 773 775 771 772 775 756 752 744 748 762 765 767 766 758 755 750 752 760 771 778 785 785 776 733 729 744 740 730 729 732
863 860 856 852 849 846 842 838 834 831 828 824 821 819 817 815 814 812 808 805 806 806 783 770 766 760 760 758 765 761 756 752 749 761 765 766 762 763 765 769 744 762 759 768 766 767 743 736 729 726 726 730 733 735
862 858 855 851 847 843 839 835 832 828 825 822 819 816 814 812 810 810 806 803 801 797 777 767 753 747 745 747 752 761 752 745 744 743 758 764 763 763 765 766 749 746 747 759 758 744 744 737 729 723 726 730 733 735
860 856 853 849 845 841 837 833 829 825 822 818 814 811 809 808 806 805 804 800 799 797 790 762 745 740 739 739 741 743 740 742 744 746 754 763 766 756 764 758 759 756 752 762 765 746 743 736 732 731 731 731 735 740
858 854 851 847 842 838 833 829 825 821 817 813 809 806 804 801 800 798 794 789 791 796 788 769 746 730 728 732 735 737 741 746 751 751 758 759 758 757 761 760 761 755 757 761 769 746 746 740 732 731 735 738 738 742
856 852 848 844 840 835 830 825 821 817 813 809 805 801 798 797 795 792 788 784 785 789 790 778 746 731 727 726 728 733 738 743 745 755 758 753 747 754 769 772 754 749 748 746 748 741 740 736 735 735 737 739 739 740
853 850 846 842 838 833 827 821 816 811 807 803 799 795 793 792 792 791 787 787 786 787 786 777 760 732 725 723 728 733 734 735 740 751 755 751 749 751 768 769 749 743 743 738 736 737 741 738 740 735 735 739 741 743
850 846 843 839 835 830 824 818 812 807 802 796 791 788 787 787 787 784 780 780 785 786 785 779 763 747 728 734 735 734 739 741 743 748 752 751 752 755 756 745 743 744 743 740 736 733 736 737 738 741 741 743 746 748
847 843 840 836 831 826 820 814 808 803 796 791 786 784 784 784 784 781 779 777 778 784 780 776 773 762 737 741 739 739 742 751 751 751 754 751 764 760 754 750 741 740 740 736 733 735 737 736 737 739 739 741 745 751
843 839 836 832 828 823 818 812 806 799 793 788 785 784 783 780 779 779 779 780 779 777 777 775 765 763 751 751 744 746 749 755 757 757 753 760 764 758 753 752 750 745 741 739 739 740 740 740 739 740 742 745 747 753
839 835 832 829 825 821 816 812 807 799 793 791 790 786 780 777 776 776 778 778 775 774 770 763 759 758 748 752 751 749 752 756 759 761 756 768 769 757 754 752 745 739 733 732 732 729 728 731 738 743 747 749 751 754
835 831 828 825 822 819 815 812 808 803 800 799 797 792 786 780 778 777 774 771 768 766 761 759 754 754 746 744 749 749 750 756 760 761 760 765 764 757 755 750 743 738 731 731 733 735 736 739 743 746 750 754 756 758
831 828 825 821 818 816 813 810 808 803 797 795 794 790 784 784 788 775 770 772 771 765 761 760 758 747 743 743 749 750 754 763 763 767 765 766 762 756 755 753 747 742 736 735 737 738 741 745 748 751 754 755 756 757
827 823 820 817 814 813 811 807 805 801 798 796 788 793 786 785 775 770 769 767 764 762 759 759 756 749 745 743 750 750 762 762 770 771 764 765 760 757 755 753 750 746 744 740 741 742 744 746 748 750 752 754 754 756
823 818 815 813 813 810 806 803 801 800 799 793 789 788 780 775 774 769 763 762 760 758 758 758 755 752 747 745 753 760 760 765 767 767 766 763 760 758 755 753 752 750 747 746 744 744 745 748 751 749 752 753 753 753
818 815 812 811 809 805 801 797 796 797 796 793 788 779 775 774 773 768 764 764 759 758 758 757 757 756 749 753 750 751 760 764 763 761 758 761 760 755 754 753 751 749 748 747 748 748 748 748 751 749 750 751 751 753
817 813 812 810 806 800 797 796 796 795 792 785 779 773 772 777 775 768 760 760 757 759 761 760 761 761 761 757 754 757 758 756 753 753 755 754 754 752 753 752 750 750 749 747 748 746 748 749 749 749 750 750 750 752
813 811 809 808 805 799 796 795 794 792 786 781 777 771 769 767 766 761 757 755 758 758 758 759 758 761 762 757 759 755 753 752 751 752 753 752 750 749 750 751 750 753 755 753 749 748 749 749 747 747 748 749 750 751
810 807 805 805 806 804 801 794 793 791 783 776 772 769 766 762 756 753 753 752 753 753 756 758 759 762 758 756 752 750 749 750 750 750 750 749 748 749 748 750 750 750 748 747 748 747 747 747 748 749 750 750 750 750
807 804 803 802 802 803 800 794 789 787 781 772 769 766 762 757 751 750 750 753 753 755 755 755 755 751 751 746 744 743 745 746 749 749 748 747 747 747 747 748 748 747 749 749 748 748 750 751 751 750 749 749 750 750
804 803 802 802 801 801 800 795 789 782 776 773 764 762 759 754 752 750 750 749 754 752 753 749 745 741 740 739 740 742 743 746 747 747 748 747 744 745 746 746 747 747 746 747 748 749 749 750 750 750 750 750 749 749
804 803 802 800 800 798 797 789 787 779 778 768 764 760 758 754 751 748 746 748 749 745 744 742 740 739 740 739 739 740 741 742 744 745 745 745 746 747 747 745 745 747 748 749 749 749 751 751 752 751 750 749 748 746
803 802 800 799 798 798 793 785 784 777 774 765 761 758 754 751 745 742 744 742 740 734 733 734 733 733 735 736 738 740 741 741 743 743 744 745 745 745 745 745 744 746 748 749 750 751 752 753 751 750 748 747 745 743
802 800 796 793 793 798 787 782 778 774 770 766 761 754 748 746 743 744 743 742 736 732 731 731 732 735 736 737 739 739 740 741 742 742 742 742 743 743 743 742 742 743 745 749 752 753 752 751 751 749 748 748 747 746
803 798 801 806 791 789 784 776 773 773 768 761 755 752 747 744 748 748 744 742 738 737 735 733 732 733 735 736 737 737 738 739 740 741 740 742 742 742 742 742 743 745 748 750 752 752 753 753 753 753 753 753 752 753
798 793 797 787 785 784 777 767 766 763 762 758 750 744 744 747 746 745 744 742 739 737 735 734 733 734 735 735 736 736 734 736 737 740 740 741 741 741 743 745 747 750 751 751 751 754 756 757 757 758 759 760 758 759
791 790 785 779 777 772 771 769 763 764 758 752 750 747 747 744 742 746 741 738 737 734 733 732 732 732 733 732 733 732 733 733 734 735 737 738 738 739 741 743 746 749 751 753 754 755 756 759 760 763 764 765 765 764
783 780 780 775 774 771 768 767 764 760 755 750 747 745 746 750 748 745 741 735 734 733 731 731 730 730 730 730 730 731 731 730 731 733 735 737 739 740 744 745 747 750 752 754 756 757 759 760 762 765 767 768 769 769
780 774 774 771 768 766 765 763 759 753 747 748 750 748 745 743 741 739 734 734 733 731 730 728 727 727 727 727 727 728 730 730 730 735 739 743 743 745 745 747 750 752 754 755 758 759 760 762 764 766 768 769 770 771
772 767 768 763 759 754 750 751 750 745 744 745 744 742 740 736 731 731 731 731 731 730 730 728 727 727 727 726 726 727 728 729 729 730 737 738 739 742 745 748 751 754 756 757 759 761 764 765 767 769 770 771 771 771
760 762 761 758 754 750 748 746 745 743 742 741 739 741 740 734 729 729 729 730 729 728 727 727 726 726 725 725 726 725 726 728 729 730 732 734 738 741 745 748 751 754 757 759 760 762 764 766 767 768 769 769 770 770
757 756 756 754 753 749 747 746 745 744 742 742 741 740 737 736 735 731 729 728 727 725 725 726 725 725 724 723 722 722 723 724 726 728 730 732 737 742 745 748 752 755 757 759 761 763 765 766 767 768 769 769 769 769
752 752 752 752 751 747 746 747 746 744 743 741 739 738 737 738 736 731 728 726 725 725 725 724 725 726 724 721 721 721 721 722 724 727 729 732 736 741 745 748 751 753 756 758 761 763 764 766 766 767 767 767 768 768